TimeMST,TemperatureF,Dew PointF,Humidity,Sea Level PressureIn,VisibilityMPH,Wind Direction,Wind SpeedMPH,Gust SpeedMPH,PrecipitationIn,Events,Conditions,WindDirDegrees,DateUTC
12:05 AM,23.0,21.2,93,30.01,0.5,Calm,Calm,-,N/A,Fog,Light Freezing Fog,0,2013-02-07 07:05:00
12:32 AM,24.8,23.0,93,30.02,0.2,East,3.5,-,N/A,Fog,Light Freezing Fog,90,2013-02-07 07:32:00
12:53 AM,25.0,23.0,92,30.08,0.2,ESE,5.8,-,N/A,Fog,Light Freezing Fog,110,2013-02-07 07:53:00
1:27 AM,24.8,24.8,100,30.01,0.2,SSE,6.9,-,N/A,Fog,Light Freezing Fog,150,2013-02-07 08:27:00
1:35 AM,24.8,24.8,100,30.01,0.2,SE,6.9,-,N/A,Fog,Light Freezing Fog,130,2013-02-07 08:35:00
1:53 AM,25.0,24.1,96,30.07,0.2,SE,5.8,-,N/A,Fog,Light Freezing Fog,130,2013-02-07 08:53:00
2:29 AM,24.8,23.0,93,30.01,0.2,SSE,6.9,-,N/A,Fog,Light Freezing Fog,160,2013-02-07 09:29:00
2:53 AM,24.1,23.0,96,30.09,0.2,Calm,Calm,-,N/A,Fog,Light Freezing Fog,0,2013-02-07 09:53:00
3:53 AM,23.0,21.0,92,30.09,0.2,South,3.5,-,N/A,Fog,Light Freezing Fog,170,2013-02-07 10:53:00
4:53 AM,21.9,19.9,92,30.11,0.2,Calm,Calm,-,N/A,Fog,Light Freezing Fog,0,2013-02-07 11:53:00
5:40 AM,21.2,19.4,93,30.02,0.5,Calm,Calm,-,N/A,Fog,Light Freezing Fog,0,2013-02-07 12:40:00
5:53 AM,19.9,18.0,92,30.13,0.2,Calm,Calm,-,N/A,Fog,Light Freezing Fog,0,2013-02-07 12:53:00
6:07 AM,19.4,17.6,93,30.02,0.5,Calm,Calm,-,N/A,Fog,Light Freezing Fog,0,2013-02-07 13:07:00
6:25 AM,19.4,15.8,86,30.02,0.2,Calm,Calm,-,N/A,Fog,Light Freezing Fog,0,2013-02-07 13:25:00
6:38 AM,17.6,14.0,86,30.03,0.5,Calm,Calm,-,N/A,Fog,Light Freezing Fog,0,2013-02-07 13:38:00
6:46 AM,17.6,15.8,93,30.03,2.0,SSE,3.5,-,N/A,,Mostly Cloudy,150,2013-02-07 13:46:00
6:50 AM,17.6,15.8,93,30.03,6.0,Calm,Calm,-,N/A,,Scattered Clouds,0,2013-02-07 13:50:00
6:53 AM,17.1,14.0,88,30.14,9.0,SSE,3.5,-,N/A,,Scattered Clouds,150,2013-02-07 13:53:00
7:53 AM,19.9,17.1,89,30.15,10.0,Calm,Calm,-,N/A,,Clear,0,2013-02-07 14:53:00
8:53 AM,27.0,24.1,89,30.17,10.0,West,3.5,-,N/A,,Clear,260,2013-02-07 15:53:00
9:53 AM,32.0,28.0,85,30.17,10.0,West,10.4,-,N/A,,Clear,280,2013-02-07 16:53:00
10:53 AM,36.0,26.1,67,30.16,10.0,WNW,10.4,-,N/A,,Clear,300,2013-02-07 17:53:00
11:53 AM,41.0,25.0,53,30.14,10.0,NW,11.5,-,N/A,,Clear,310,2013-02-07 18:53:00
12:53 PM,43.0,24.1,47,30.12,10.0,West,9.2,-,N/A,,Clear,280,2013-02-07 19:53:00
1:53 PM,45.0,24.1,44,30.10,10.0,Variable,6.9,-,N/A,,Clear,0,2013-02-07 20:53:00
2:53 PM,45.0,23.0,42,30.10,10.0,Calm,Calm,-,N/A,,Clear,0,2013-02-07 21:53:00
3:53 PM,45.0,23.0,42,30.10,10.0,Calm,Calm,-,N/A,,Clear,0,2013-02-07 22:53:00
4:53 PM,35.1,24.1,64,30.12,10.0,East,9.2,-,N/A,,Clear,100,2013-02-07 23:53:00
5:53 PM,33.1,27.0,78,30.13,10.0,ESE,9.2,-,N/A,,Clear,120,2013-02-08 00:53:00
6:53 PM,30.0,26.1,85,30.15,10.0,SE,9.2,-,N/A,,Clear,130,2013-02-08 01:53:00
7:53 PM,28.0,26.1,92,30.15,10.0,SE,10.4,-,N/A,,Clear,130,2013-02-08 02:53:00
8:01 PM,28.4,26.6,93,30.03,10.0,SE,11.5,-,N/A,,Partly Cloudy,130,2013-02-08 03:01:00
8:53 PM,27.0,25.0,92,30.13,7.0,SE,10.4,-,N/A,,Scattered Clouds,130,2013-02-08 03:53:00
9:04 PM,26.6,24.8,93,30.02,5.0,SE,11.5,-,N/A,,Mostly Cloudy,130,2013-02-08 04:04:00
9:19 PM,26.6,24.8,93,30.02,2.5,SE,11.5,-,N/A,,Overcast,130,2013-02-08 04:19:00
9:31 PM,26.6,24.8,93,30.03,1.0,SE,11.5,-,N/A,,Overcast,130,2013-02-08 04:31:00
9:40 PM,26.6,24.8,93,30.03,0.8,SE,10.4,-,N/A,,Mist,130,2013-02-08 04:40:00
9:53 PM,27.0,25.0,92,30.12,0.8,SE,11.5,-,N/A,,Mist,130,2013-02-08 04:53:00
10:53 PM,26.1,25.0,96,30.10,0.5,SE,10.4,-,N/A,Fog,Light Freezing Fog,130,2013-02-08 05:53:00
11:53 PM,26.1,24.1,92,30.08,0.8,SE,13.8,-,N/A,,Mist,130,2013-02-08 06:53:00